User: anonymous   Login
Location: Vancouver
(49.2500°N, 123.1330°W)
Time: 06:22:13
(UTC-08:00)
Language:

Iridium 35 - Orbit

View from above orbital plane
View from above orbital plane
View from above satellite
View from above satellite

Ground track
Ground track

The orbit data is extracted from the following two-line orbital elements,

1 24966U 97056B   14351.42342235  .00000417  00000-0  14172-3 0  1096
2 24966 086.3955 340.2285 0002206 105.4077 254.7362 14.34219549901701
Epoch (UTC): 17 December 2014 10:09:43
Eccentricity: 0.0002206
inclination: 86.3955°
perigee height: 776 km
apogee height: 779 km
right ascension of ascending node: 340.2285°
argument of perigee: 105.4077°
revolutions per day: 14.34219549
mean anomaly at epoch: 254.7362°
orbit number at epoch: 90170

The dashed part of the orbit path shows where the satellite is in the earth's shadow,  

DLR